Regional Weather Roundup
Issued by NWS

Home | Current Version | Previous Version | Graphics & Text | Print | Product List | Glossary Off
Versions: 1 2 3 4 5 6 7 8 9 10 11 12 13 14 15 16 17 18 19 20 21 22 23 24 25 26 27 28 29 30 31 32 33 34 35 36 37 38 39 40 41 42 43 44 45 46 47 48 49 50

000
ASUS43 KTOP 290159
RWRKS

WEATHER ROUNDUP FOR KANSAS
NATIONAL WEATHER SERVICE GOODLAND KS
900 PM CDT MON JUL 28 2014

NOTE:  "FAIR" INDICATES FEW OR NO CLOUDS BELOW 12,000 FEET WITH NO
SIGNIFICANT WEATHER AND/OR OBSTRUCTIONS TO VISIBILITY.

KSZ001>006-013>018-027>032-041>047-290300-
NORTHWEST KANSAS

CITY           SKY/WX    TMP DP  RH WIND       PRES   REMARKS
GOODLAND       MOCLDY    74  55  51 S10       30.24S
HAYS           PTCLDY    79  57  47 E9        30.18R
HILL CITY      PTCLDY    80  58  46 E8        30.17R
RUSSELL        CLEAR     76  59  55 SE7       30.16S
$$

KSZ061>065-074>080-084>089-290300-
SOUTHWEST KANSAS

CITY           SKY/WX    TMP DP  RH WIND       PRES   REMARKS
DODGE CITY     PTCLDY    74  57  55 S7        30.22R
ELKHART          N/A     69  61  76 S5          N/A
GARDEN CITY    PTCLDY    71  59  65 SW6       30.23R
GREAT BEND     PTCLDY    79  61  53 SE6       30.16S
LIBERAL        MOCLDY    73  55  53 SW6       30.25S
PRATT          PTCLDY    73  59  60 W3        30.20S
$$

KSZ066>073-081>083-090>101-290300-
SOUTHEAST KANSAS

CITY           SKY/WX    TMP DP  RH WIND       PRES   REMARKS
CHANUTE        CLEAR     74  58  57 N5        30.13S
COFFEYVILLE    CLEAR     75  60  59 NE6       30.11S
HUTCHINSON     PTCLDY    76  60  57 CALM      30.16S
MEDICINE LODGE   N/A     80  60  50 CALM      30.16R
NEWTON         PTCLDY    77  54  44 NE5       30.20R
PARSONS        CLEAR     71  60  68 NE3       30.13S
WICHITA INTL   PTCLDY    81  55  40 N5        30.15R
WICHITA JABRA  PTCLDY    76  58  53 NE3       30.15R
WINFIELD       CLEAR     78  56  46 NE3       30.15R
$$

KSZ007>012-019>026-033>040-048>060-102>105-290300-
NORTHEAST KANSAS

CITY           SKY/WX    TMP DP  RH WIND       PRES   REMARKS
CONCORDIA      CLEAR     72  57  59 NE6       30.19S
EMPORIA        CLEAR     74  54  49 N8        30.15S
LAWRENCE       CLEAR     70  58  65 N8        30.16R
MANHATTAN      CLEAR     75  56  51 N5        30.16S
OLATHE IND     CLEAR     68  58  70 N8        30.16S
OLATHE EXE     CLEAR     73  59  61 N6        30.15S
SALINA         CLEAR     81  54  39 NE9       30.17R
TOPEKA BILLARD CLEAR     73  57  57 N7        30.16S
TOPEKA FORBES  CLEAR     73  56  54 NE6       30.16S
$$



USA.gov is the U.S. government's official web portal to all federal, state and local government web resources and services.